TimePST,TemperatureF,Dew PointF,Humidity,Sea Level PressureIn,VisibilityMPH,Wind Direction,Wind SpeedMPH,Gust SpeedMPH,PrecipitationIn,Events,Conditions,WindDirDegrees,DateUTC
12:53 AM,46.9,30.0,52,30.14,10.0,Calm,Calm,-,N/A,,Clear,0,2014-01-02 08:53:00
1:53 AM,46.0,30.0,54,30.14,10.0,Calm,Calm,-,N/A,,Clear,0,2014-01-02 09:53:00
2:53 AM,45.0,28.9,53,30.14,10.0,Calm,Calm,-,N/A,,Clear,0,2014-01-02 10:53:00
3:53 AM,44.1,28.9,55,30.13,10.0,Calm,Calm,-,N/A,,Clear,0,2014-01-02 11:53:00
4:53 AM,42.1,28.9,60,30.13,10.0,Calm,Calm,-,N/A,,Clear,0,2014-01-02 12:53:00
5:53 AM,44.1,28.0,53,30.13,10.0,Calm,Calm,-,N/A,,Clear,0,2014-01-02 13:53:00
6:53 AM,42.1,28.0,58,30.14,10.0,Calm,Calm,-,N/A,,Clear,0,2014-01-02 14:53:00
7:53 AM,42.1,28.9,60,30.13,10.0,Calm,Calm,-,N/A,,Clear,0,2014-01-02 15:53:00
8:53 AM,50.0,30.0,46,30.14,10.0,Calm,Calm,-,N/A,,Clear,0,2014-01-02 16:53:00
9:53 AM,59.0,28.9,32,30.15,10.0,ENE,4.6,-,N/A,,Clear,70,2014-01-02 17:53:00
10:53 AM,66.0,28.9,25,30.13,10.0,East,4.6,-,N/A,,Clear,80,2014-01-02 18:53:00
11:53 AM,71.1,27.0,19,30.10,10.0,Variable,3.5,-,N/A,,Clear,0,2014-01-02 19:53:00
12:53 PM,73.0,26.1,17,30.07,10.0,SE,3.5,-,N/A,,Clear,130,2014-01-02 20:53:00
1:53 PM,69.1,33.1,26,30.06,10.0,SSW,4.6,-,N/A,,Clear,210,2014-01-02 21:53:00
2:53 PM,72.0,34.0,25,30.04,10.0,Calm,Calm,-,N/A,,Clear,0,2014-01-02 22:53:00
3:53 PM,69.1,30.0,23,30.04,10.0,WSW,5.8,-,N/A,,Clear,240,2014-01-02 23:53:00
4:53 PM,64.9,30.0,27,30.05,10.0,Calm,Calm,-,N/A,,Clear,0,2014-01-03 00:53:00
5:53 PM,59.0,33.1,38,30.05,10.0,Calm,Calm,-,N/A,,Clear,0,2014-01-03 01:53:00
6:53 PM,54.0,36.0,51,30.05,10.0,NNW,3.5,-,N/A,,Clear,330,2014-01-03 02:53:00
7:53 PM,54.0,35.1,49,30.05,10.0,NW,3.5,-,N/A,,Clear,310,2014-01-03 03:53:00
8:53 PM,52.0,35.1,53,30.05,10.0,Calm,Calm,-,N/A,,Clear,0,2014-01-03 04:53:00
9:53 PM,50.0,34.0,54,30.06,10.0,WNW,5.8,-,N/A,,Clear,300,2014-01-03 05:53:00
10:53 PM,48.0,35.1,61,30.07,10.0,NW,4.6,-,N/A,,Clear,320,2014-01-03 06:53:00
11:53 PM,48.0,34.0,58,30.05,10.0,WNW,3.5,-,N/A,,Clear,300,2014-01-03 07:53:00